"Pseudo-MPEC" for C0GQ5V5
Created 2023 Mar 19 9:22:06 UT using Find_Orb
Click here for an explanation of pseudo-MPECs
Astrometry: C0GQ5V5* C2023 03 17ZW30^+lGM]ZHM9oA'5]KFW^(!n?xtrXQ`C6E57rrK@djAEYYp%jJ
V00 C0GQ5V5 C2023 03 17LL2l$,d68JYN
Astrometryoo?AgjA.`c-
redacted;?v$yf(=8.)
V00 C0GQ5V5 C2023 03 17^2j#I('(0Qw)r?Mh`[N#
clickhHSFG?)27GJ
hereJkMMs/U]`-f2
V00 C0GQ5V5 C2023 03 179!@N)xqQQ=RKp78ab/i5]RD@8Qa$1TYR)=*n[qG`r=w059Ly\;\4
V00 C0GQ5V5 KC2023 03 18.29598 12 24 43.94 +22 11 05.0 ~3I9M 22.5 GVNEOCP291 C0GQ5V5 KC2023 03 18.32763 12 24 41.96 +22 11 45.3 ~3I9M 22.5 GVNEOCP291 C0GQ5V5 KC2023 03 18.35926 12 24 40.04 +22 12 27.5 ~3I9M 22.6 GVNEOCP291 C0GQ5V5 mC2023 03 19_Vk=*VrbU[lU)N*4xHf.7%46aOLui]U4T_jWS[8yjvMqo
for(\X@
V00 C0GQ5V5 mC2023 03 19al0v7Q?t,-NkQU#^6o^'kex
explanationr'Gc%@$L+BWuc(D/3y
V00 C0GQ5V5 mC2023 03 19frj[VKMA#E#JE@*@y0KY2G7a=TCa=Va)N+e^VlZY77]61gV0w[jc
V00 C0GQ5V5 mC2023 03 19\[$yiGa-$j,-/Ec!%v8Y)M!_8Ru(W=tW,Brmt^,[mQxo0ta-j.b*
V00 Station data: (291) LPL/Spacewatch II (N31.961669 W111.599905) US/Arizona. Observers J. V. Scotti, R. S. McMillan. 1.8-m f/2.7 reflector + CCD. (V00) Kitt Peak-Bok (N31.963125 W111.600190) US/Arizona. Observers T. A. Pruyne, B. M. Africano, E. J. Christensen, G. A. Farneth, D. C. Fuls, A. R. Gibbs, A. D. Grauer, H. Gröller, J. A. Johnson, R. A. Kowalski, S. M. Larson, G. J. Leonard, D. Rankin, R. L. Seaman, F. C. Shelly, K. W. Wierzchoś. 2.25-m reflector + CCD. Orbital elements: C0GQ5V5 Perihelion 2024 Apr 9.54705 +/- 334 TT = 13:07:44 (JD 2460410.04705) Epoch 2023 Mar 19.0 TT = JDT 2460022.5 Earth MOID: 0.6444 AutoNEOCP M 192.52101830 +/- 60 (J2000 ecliptic) n 0.43215135 +/- 0.0419 Peri. 202.23435 +/- 45 a 1.73265513 +/- 0.112 Node 144.89599 +/- 5.1 e 0.0467593 +/- 0.0556 Incl. 19.28904 +/- 5.4 P 2.28/833.03d H 21.19 G 0.15 U 10.6 SR q 1.65163722 +/- 0.0663 Q 1.81367304 +/- 0.246 From 11 observations 2023 Mar. 17-19 (43.3 hr); mean residual 0".47
Residuals in arcseconds: 230317 V00 .19+ .07- 230318 291 .44- .66+ 230319 V00 .27+ .93+ 230317 V00 .29+ .02+ 230318 291 .94- .80- 230319 V00 .29+ .36- 230317 V00 .10+ .05+ 230318 291 .59- .19- 230319 V00 .39+ .71- 230317 V00 .42+ .15+ 230319 V00 .01+ .31+ Ephemerides (geocentric): Date (UTC) HH RA Dec delta r elong mag " sig PA ---- -------- ------------ ------------ ------ ------ ----- --- -------- 2023 03 19 09 12 23 41.251 +22 34 32.04 .85352 1.8119 156.9 22.9 1.49 15 2023 03 19 10 12 23 38.816 +22 35 25.73 .85355 1.8119 156.9 22.9 1.63 15 2023 03 19 11 12 23 36.380 +22 36 19.39 .85359 1.8119 156.9 22.9 1.79 15 2023 03 19 12 12 23 33.943 +22 37 12.99 .85362 1.8119 156.9 22.9 1.95 15 2023 03 19 13 12 23 31.504 +22 38 06.56 .85365 1.8118 156.9 22.9 2.11 16 2023 03 19 14 12 23 29.063 +22 39 00.07 .85368 1.8118 156.9 22.9 2.28 16 2023 03 19 15 12 23 26.622 +22 39 53.54 .85372 1.8118 156.8 22.9 2.46 17 2023 03 19 16 12 23 24.179 +22 40 46.97 .85375 1.8118 156.8 22.9 2.64 18 2023 03 19 17 12 23 21.735 +22 41 40.35 .85379 1.8118 156.8 22.9 2.83 18 2023 03 19 18 12 23 19.289 +22 42 33.68 .85382 1.8118 156.8 22.9 3.02 19 2023 03 19 19 12 23 16.843 +22 43 26.97 .85386 1.8118 156.8 22.9 3.22 20 2023 03 19 20 12 23 14.394 +22 44 20.22 .85389 1.8118 156.8 22.9 3.43 21 2023 03 19 21 12 23 11.945 +22 45 13.41 .85393 1.8118 156.8 22.9 3.64 22 2023 03 19 22 12 23 09.494 +22 46 06.56 .85396 1.8118 156.7 22.9 3.86 23 2023 03 19 23 12 23 07.043 +22 46 59.67 .85400 1.8118 156.7 22.9 4.08 23 2023 03 20 00 12 23 04.589 +22 47 52.73 .85404 1.8118 156.7 22.9 4.31 24 2023 03 20 01 12 23 02.135 +22 48 45.74 .85408 1.8118 156.7 22.9 4.54 25 2023 03 20 02 12 22 59.679 +22 49 38.70 .85411 1.8118 156.7 22.9 4.78 26 2023 03 20 03 12 22 57.222 +22 50 31.62 .85415 1.8118 156.7 22.9 5.03 27 2023 03 20 04 12 22 54.764 +22 51 24.50 .85419 1.8118 156.6 22.9 5.28 27 2023 03 20 05 12 22 52.305 +22 52 17.32 .85423 1.8118 156.6 22.9 5.54 28 2023 03 20 06 12 22 49.845 +22 53 10.10 .85427 1.8118 156.6 22.9 5.81 29 2023 03 20 07 12 22 47.383 +22 54 02.83 .85431 1.8118 156.6 22.9 6.08 30 2023 03 20 08 12 22 44.920 +22 54 55.51 .85435 1.8117 156.6 22.9 6.36 30 2023 03 20 09 12 22 42.456 +22 55 48.15 .85439 1.8117 156.5 22.9 6.64 31 2023 03 20 10 12 22 39.991 +22 56 40.74 .85443 1.8117 156.5 22.9 6.93 32 2023 03 20 11 12 22 37.524 +22 57 33.28 .85447 1.8117 156.5 22.9 7.22 33 2023 03 20 12 12 22 35.057 +22 58 25.78 .85452 1.8117 156.5 22.9 7.52 33 2023 03 20 13 12 22 32.588 +22 59 18.22 .85456 1.8117 156.5 22.9 7.83 34 2023 03 20 14 12 22 30.119 +23 00 10.62 .85460 1.8117 156.5 22.9 8.14 34 2023 03 20 15 12 22 27.648 +23 01 02.97 .85464 1.8117 156.4 22.9 8.46 35 2023 03 20 16 12 22 25.176 +23 01 55.27 .85469 1.8117 156.4 22.9 8.78 36 2023 03 20 17 12 22 22.703 +23 02 47.53 .85473 1.8117 156.4 22.9 9.11 36 2023 03 20 18 12 22 20.228 +23 03 39.73 .85478 1.8117 156.4 22.9 9.45 37 2023 03 20 19 12 22 17.753 +23 04 31.89 .85482 1.8117 156.4 22.9 9.79 37 2023 03 20 20 12 22 15.277 +23 05 24.00 .85487 1.8117 156.4 22.9 10.1 38 2023 03 20 21 12 22 12.799 +23 06 16.06 .85491 1.8117 156.3 22.9 10.5 38 2023 03 20 22 12 22 10.321 +23 07 08.08 .85496 1.8117 156.3 22.9 10.9 39 2023 03 20 23 12 22 07.841 +23 08 00.04 .85500 1.8117 156.3 22.9 11.2 39 2023 03 21 00 12 22 05.361 +23 08 51.95 .85505 1.8117 156.3 22.9 11.6 39 2023 03 21 01 12 22 02.879 +23 09 43.82 .85510 1.8117 156.3 22.9 12.0 40 2023 03 21 02 12 22 00.397 +23 10 35.64 .85515 1.8117 156.2 22.9 12.3 40 2023 03 21 03 12 21 57.913 +23 11 27.40 .85519 1.8116 156.2 22.9 12.7 41 2023 03 21 04 12 21 55.429 +23 12 19.12 .85524 1.8116 156.2 22.9 13.1 41 2023 03 21 05 12 21 52.943 +23 13 10.79 .85529 1.8116 156.2 22.9 13.5 41 2023 03 21 06 12 21 50.457 +23 14 02.41 .85534 1.8116 156.2 22.9 13.9 42 2023 03 21 07 12 21 47.969 +23 14 53.98 .85539 1.8116 156.1 22.9 14.3 42 2023 03 21 08 12 21 45.481 +23 15 45.50 .85544 1.8116 156.1 22.9 14.8 42